2023-001AC (55035 NORAD) Tracking and Keplerian Element Data

This shows tracking and keplerian element data for the satellite.

Feedback or suggestion? Click here.




ElementValue
Catalog55035
Name2023-001AC
Epoch Orbit171
Epoch Day13.91357919
Epoch Year2023
RAAN75.8622
Inclination97.501
Eccentricity0.0015486
Argument of Perigee178.9502
Mean Anonmoly181.1764
Mean Motion15.13220042
Decay Rate9.816E-05
L11 55035U 23001AC 23013.91357919 .00009816 00000+0 55443-3 0 9994
L22 55035 97.5010 75.8622 0015486 178.9502 181.1764 15.13220042 1715



Live tracking and technical data element details for 2023-001AC (NORAD 55035). 2023-001AC can be tracked NOW for your location showing map with azimuth and elevation plus other details from your city location.







IsCatalogInMostPopularTable: catalog: 55035, numindb: 3
Update: records affected: 1



GetName: 55035 2023-001AC

Hit Count: updated at: Tue, 07 Feb 2023 14:52:27 GMT